Back to catalog

HULIANWANG DIGUI-123

AliveCommunicationsLEO
NORAD 67063·PAYLOAD·🇨🇳 China

Launched Dec 11, 2025 from Wenchang Space Launch Site

Loading…

Next Passes (next 24 hours)

TLE

FreshSource: Space-Track

Epoch: Sep 14, 2026, 17:41 UTC

1 67063U 25295E   26257.73707683 -.00000114  00000-0  22610-4 0  9990
2 67063  50.0037  64.3155 0000772  67.1065 292.9889 13.29325468 37419

Track HULIANWANG DIGUI-123 in real time with AllMySat

Download on the App Store